Regional Weather Roundup
Issued by NWS

Home | Current Version | Previous Version | Graphics & Text | Print | Product List | Glossary On
Versions: 1 2 3 4 5 6 7 8 9 10 11 12 13 14 15 16 17 18 19 20 21 22 23 24 25 26 27 28 29 30 31 32 33 34 35 36 37 38 39 40 41 42 43 44 45 46 47 48 49 50
000
ASUS43 KDTX 210910
RWRMI
MICHIGAN HOURLY REGIONAL WEATHER ROUNDUP
NATIONAL WEATHER SERVICE DETROIT/PONTIAC MI
500 AM EDT TUE OCT 21 2014

NOTE: "FAIR" INDICATES FEW OR NO CLOUDS BELOW 12,000 FEET WITH NO
SIGNIFICANT WEATHER AND/OR OBSTRUCTION TO VISIBILITY.

MIZ047>049-052>055-059>063-066>070-074>076-081>083-211000-
SOUTHEAST LOWER MICHIGAN

CITY           SKY/WX    TMP DP  RH WIND       PRES   REMARKS
ADRIAN         CLOUDY    47  44  90 NW6       29.92S
ALMA           CLOUDY    47  43  84 NW8       29.94R
ANN ARBOR      CLOUDY    49  41  74 N8        29.90R
BAD AXE        CLOUDY    46  45  97 N10       29.90R
CARO           CLOUDY    47  45  93 N9G16     29.90R
DETROIT CITY   CLOUDY    50  44  80 NW6       29.89S
DETROIT        CLOUDY    49  43  80 NW8       29.90R
FLINT          CLOUDY    49  44  83 N9        29.92R
GROSSE ILE     CLOUDY    50  45  81 NW8       29.88R
HILLSDALE      CLOUDY    47  45  93 N6        29.92S
HOWELL         CLOUDY    46  43  87 NW5       29.91R

CITY           SKY/WX    TMP DP  RH WIND       PRES   REMARKS
JACKSON        CLOUDY    46  43  89 NW5       29.93R
LAMBERTVILLE   CLOUDY    50  45  81 NW3       29.91S
LANSING        CLOUDY    47  42  83 NW8       29.94R
LAPEER         LGT RAIN  46  44  94 NW5       29.90R
MASON          CLOUDY    46  42  85 NW6       29.93R
MONROE         CLOUDY    48  46  93 NW6       29.88S
MT. CLEMENS    CLOUDY    48  47  97 NW7       29.87R
PONTIAC        CLOUDY    47  43  86 NW8       29.89R
PORT HOPE        N/A     48  42  80 N13G23    29.89R
PORT HURON     RAIN      46  46 100 NW6       29.88R
TRI CITIES     LGT RAIN  48  44  86 N14       29.95R FOG
TROY           CLOUDY    49  45  85 NW8       29.91R
SAGINAW HB     CLOUDY    48  45  87 N6        29.92R
$$
MIZ043>046-050>051-056>058-064>065-071>073-077>080-211000-
SOUTHWEST LOWER MICHIGAN

CITY           SKY/WX    TMP DP  RH WIND       PRES   REMARKS
BATTLE CREEK   CLOUDY    47  42  83 N8        29.96R
BENTON HARBOR  CLOUDY    49  41  74 VRB6      29.99R
BIG RAPIDS     CLOUDY    45  45 100 NW7       29.96R
COLDWATER      RAIN      47  44  90 NW7       29.94S
FREMONT        CLOUDY    45  43  90 NW7       29.98R
HOLLAND        CLOUDY    49  42  77 NW6       29.99R
GRAND RAPIDS   CLOUDY    47  42  83 NW9       29.97R
IONIA          CLOUDY    47  42  82 NW8       29.94S
KALAMAZOO      LGT RAIN  47  42  83 N9        29.96S
LUDINGTON      LGT RAIN  47  45  93 N6        30.01R
MARSHALL       CLOUDY    46  42  85 NW5       29.94R
MOUNT PLEASANT CLOUDY    47  42  84 NW6       29.94R
MUSKEGON       CLOUDY    47  42  83 N10       30.00R
SOUTH HAVEN    CLOUDY    49  44  82 N8G17     29.98S
$$
MIZ016>042-211000-
NORTHERN LOWER MICHIGAN

CITY           SKY/WX    TMP DP  RH WIND       PRES   REMARKS
ALPENA         CLOUDY    44  38  79 N13       29.97R
BEAVER ISLAND  CLOUDY    45  39  79 N7        30.05R
BELLAIRE       CLOUDY    45  40  82 N5        30.01R
CADILLAC       CLOUDY    43  43  98 N8        29.96R
CHARLEVOIX     CLOUDY    46  39  79 NE8       30.05R
FRANKFORT      CLOUDY    48  42  78 N9        30.01R
GAYLORD        CLOUDY    41  38  89 N8        29.98R
GRAYLING       CLOUDY    43  42  95 N9        29.98R
HARBOR SPRINGS CLOUDY    44  37  76 NE5       30.02R
HOUGHTON LAKE  CLOUDY    43  41  93 N7        29.96R
MANISTEE       CLOUDY    46  41  81 N8        30.01R
OSCODA         CLOUDY    45  42  91 N15       29.93R
PELLSTON       CLOUDY    44  38  79 N7        30.03R
ROGERS CITY    CLOUDY    45  39  81 N13G18    30.00R
TRAVERSE CITY  CLOUDY    48  40  73 N12G21    29.99R
$$
MIZ007>008-015-211000-
EASTERN UPPER MICHIGAN

CITY           SKY/WX    TMP DP  RH WIND       PRES   REMARKS
KINROSS        CLOUDY    41  36  81 N10       30.04R
MACKINAC ISLAN CLOUDY    43  35  74 NE13      30.03R
NEWBERRY       CLOUDY    40  35  84 N9        30.06R WCI  33
S. S. MARIE    MOCLDY    41  32  70 N7        30.05R
MUNISING         N/A     46  39  76 N18       30.10R
$$
MIZ004>006-011>014-085-211000-
CENTRAL UPPER MICHIGAN

CITY           SKY/WX    TMP DP  RH WIND       PRES   REMARKS
MANISTIQUE     CLOUDY    42  39  89 N8        30.07R
ESCANABA       CLOUDY    43  37  81 N6        30.09R
MENOMINEE      CLOUDY    43  36  75 N10       30.08R
SAWYER-GWINN   CLOUDY    39  37  91 N12       30.11R WCI  32
$$
MIZ001>003-009>011-084-211000-
WESTERN UPPER MICHIGAN

CITY           SKY/WX    TMP DP  RH WIND       PRES   REMARKS
IRON MOUNTAIN  CLOUDY    40  36  86 N10       30.12R WCI  33
HOUGHTON       CLOUDY    38  32  79 N7        30.16R WCI  33
COPPER HARBOR    N/A     41  34  76 E13       30.18R
IRONWOOD       CLOUDY    39  39 100 E3        30.15R
$$

ABBREVIATIONS USED IN REMARKS
   TC - TEMPERATURE IN CELSIUS
  WCI - WIND CHILL INDEX
   HX - HEAT INDEX
  VSB - VISIBILITY




USA.gov is the U.S. government's official web portal to all federal, state and local government web resources and services.